Location: Kawakawa
(35.3830°S, 174.0670°E)
Time: 11:32:14
(UTC+13:00)

Transit 2A - All Passes

Search period start: 06 December 2019 00:00
Search period end: 16 December 2019 00:00
Orbit: 602 x 957 km, 66.7° (Epoch: 05 December)

Date Brightness Start Highest point End Pass type
(mag) Time Alt. Az. Time Alt. Az. Time Alt. Az.
06 Dec - 04:52:15 10° SSE 04:55:13 13° SE 04:58:08 10° ESE visible
06 Dec - 06:33:20 10° SSW 06:39:40 73° ESE 06:45:31 10° NNE daylight
06 Dec - 08:18:47 10° WSW 08:22:05 15° W 08:25:16 10° NW daylight
06 Dec - 19:29:40 10° NE 19:32:15 13° E 19:34:56 10° ESE daylight
06 Dec - 21:08:57 10° NNW 21:14:34 76° WSW 21:20:46 10° SSE visible
06 Dec - 22:56:07 10° WSW 22:58:58 13° SW 23:01:54 10° SSW visible
07 Dec - 05:59:18 10° SSW 06:05:27 51° ESE 06:11:11 10° NE daylight
07 Dec - 07:43:33 10° SW 07:48:14 23° WNW 07:52:40 10° NNW daylight
07 Dec - 20:34:53 10° NNW 20:40:27 75° ENE 20:46:37 10° SSE daylight
07 Dec - 22:20:26 10° W 22:24:26 18° SW 22:28:39 10° S visible
08 Dec - 05:25:23 10° S 05:31:11 36° SE 05:36:36 10° ENE visible
08 Dec - 07:08:50 10° SW 07:14:21 34° WNW 07:19:28 10° N daylight
08 Dec - 20:01:02 10° N 20:06:25 50° ENE 20:12:19 10° SE daylight
08 Dec - 21:45:16 10° WNW 21:50:00 25° SW 21:55:03 10° S visible
09 Dec - 04:51:35 10° S 04:56:49 26° SE 05:01:47 10° ENE visible
09 Dec - 06:34:22 10° SW 06:40:22 50° WNW 06:45:55 10° N daylight
09 Dec - 19:27:28 10° N 19:32:27 34° ENE 19:37:53 10° SE daylight
09 Dec - 21:10:24 10° WNW 21:15:38 35° SW 21:21:17 10° S visible
10 Dec - 04:17:57 10° S 04:22:23 19° SE 04:26:39 10° E visible
10 Dec - 06:00:04 10° SSW 06:06:20 73° WNW 06:12:06 10° NNE daylight
10 Dec - 18:54:15 10° NNE 18:58:34 23° ENE 19:03:09 10° SE daylight
10 Dec - 20:35:49 10° NW 20:41:20 49° WSW 20:47:22 10° SSE daylight
11 Dec - 03:44:37 10° SSE 03:47:52 14° SE 03:51:02 10° ESE visible
11 Dec - 05:25:55 10° SSW 05:32:14 79° ESE 05:38:01 10° NNE visible
11 Dec - 07:11:45 10° WSW 07:14:33 13° W 07:17:16 10° NW daylight
11 Dec - 18:21:39 10° NE 18:24:43 15° E 18:27:56 10° ESE daylight
11 Dec - 20:01:28 10° NW 20:07:07 71° WSW 20:13:21 10° SSE daylight
11 Dec - 21:49:01 10° WSW 21:51:36 13° SW 21:54:15 10° SSW visible
12 Dec - 03:12:29 10° SSE 03:13:17 10° SE 03:14:04 10° SE visible
12 Dec - 04:51:52 10° SSW 04:58:02 55° ESE 05:03:45 10° NE visible
12 Dec - 06:36:20 10° WSW 06:40:44 21° WNW 06:44:53 10° NNW daylight
12 Dec - 19:27:20 10° NNW 19:32:59 81° ENE 19:39:13 10° SSE daylight
12 Dec - 21:13:12 10° W 21:17:04 17° SW 21:21:07 10° S visible
13 Dec - 04:17:55 10° SSW 04:23:47 39° SE 04:29:13 10° ENE visible
13 Dec - 06:01:32 10° SW 06:06:51 31° WNW 06:11:48 10° NNW daylight
13 Dec - 18:53:26 10° N 18:58:56 55° ENE 19:04:58 10° SE daylight
13 Dec - 20:37:56 10° WNW 20:42:36 24° SW 20:47:33 10° S daylight
14 Dec - 03:44:05 10° S 03:49:26 28° SE 03:54:27 10° ENE visible
14 Dec - 05:27:01 10° SW 05:32:54 45° WNW 05:38:18 10° N visible
14 Dec - 18:19:48 10° N 18:24:57 37° ENE 18:30:33 10° SE daylight
14 Dec - 20:03:01 10° WNW 20:08:13 33° SW 20:13:48 10° S daylight
15 Dec - 03:10:25 10° S 03:15:01 21° SE 03:19:23 10° E visible
15 Dec - 04:52:41 10° SSW 04:58:53 67° WNW 05:04:33 10° NNE visible
15 Dec - 17:46:30 10° NNE 17:51:03 25° ENE 17:55:55 10° SE daylight
15 Dec - 19:28:23 10° NW 19:33:55 46° WSW 19:39:56 10° SSE daylight
